Regional Weather Roundup
Issued by NWS

Home | Current Version | Previous Version | Text Only | Print | Product List | Glossary Off
Versions: 1 2 3 4 5 6 7 8 9 10 11 12 13 14 15 16 17 18 19 20 21 22 23 24 25 26 27 28 29 30 31 32 33 34 35 36 37 38 39 40 41 42 43 44 45 46 47 48 49 50

000
ASUS45 KABQ 291110
RWRNM
NEW MEXICO REGIONAL WEATHER ROUNDUP
NATIONAL WEATHER SERVICE ALBUQUERQUE NM
500 AM MDT SAT AUG 29 2015

NOTE: "FAIR" MEANS FEW OR NO CLOUDS BELOW 12,000 FEET AGL WITH NO
       SIGNIFICANT WEATHER OR OBSTRUCTIONS TO VISION.

      THIS PRODUCT IS RELEASED AS TWO VERSIONS.  ONE VERSION NEAR
      THE TOP OF THE HOUR CONTAINING PRELIMINARY DATA FROM ALBUQUERQUE
      AND OTHER STATIONS.  A FINAL VERSION WITH ADDITIONAL DATA IS
      ISSUED ABOUT 10 MINUTES AFTER THE HOUR.

NMZ501-503-504-510>518-291200-
NORTHWEST PLATEAU/NORTHCENTRAL MOUNTAINS

CITY           SKY/WX    TMP DP  RH WIND       PRES   REMARKS
FARMINGTON     CLEAR     61  46  57 NE5       30.24R
LOS ALAMOS     PTCLDY    61  47  60 SW8       30.40S
SANTA FE       MOCLDY    59  52  77 CALM      30.34S
TAOS           PTCLDY    54  36  50 CALM      30.42S
ANGEL FIRE     FOG       39  39  98 CALM      30.51S VSB 1/4

$$
NMZ402-403-502-505>509-291200-
WESTCENTRAL MOUNTAINS/SOUTHWEST MOUNTAINS

CITY           SKY/WX    TMP DP  RH WIND       PRES   REMARKS
GALLUP         PTCLDY    53  44  71 CALM      30.31S
GRANTS         CLEAR     58  51  76 S8        30.35R
SILVER CITY      N/A     68  54  60 CALM      30.24R

$$
NMZ407-409-411-412-291200-
SOUTHERN DESERTS

CITY           SKY/WX    TMP DP  RH WIND       PRES   REMARKS
DEMING         MOCLDY    71  56  58 E10       30.15R
LAS CRUCES     PTCLDY    67  58  72 E6        30.17F
HOLLOMAN AFB   PTCLDY    68  57  68 N7        30.14F
ALAMOGORDO     PTCLDY    64  54  68 NE6       30.16F
T OR C         MOCLDY    69  57  65 NW6       30.21F

$$
NMZ519>523-291200-
CENTRAL VALLEYS/CENTRAL HIGHLANDS

CITY           SKY/WX    TMP DP  RH WIND       PRES   REMARKS
ALBUQUERQUE    PTCLDY    71  49  45 N6        30.28R
DOUBLE EAGLE   CLEAR     62  49  63 NW5       30.31S
MORIARTY ARPT  FAIR      50  47  89 CALM      30.35S
CLINES CORNERS PTCLDY    51  48  89 W8        30.37S
BELEN          FAIR      68  52  56 SE9       30.26R
SOCORRO        FAIR      67  57  70 NW9       30.23S

$$
NMZ524>526-539-540-291200-
SOUTHCENTRAL MOUNTAINS

CITY           SKY/WX    TMP DP  RH WIND       PRES   REMARKS
RUIDOSO        PTCLDY    55  52  88 MISG      30.36S

$$
NMZ527>531-291200-
NORTHEAST HIGHLANDS/NORTHEAST PLAINS

CITY           SKY/WX    TMP DP  RH WIND       PRES   REMARKS
LAS VEGAS      CLEAR     49  46  90 NE7       30.37S
RATON          CLEAR     51  47  86 NE7       30.32F
CLAYTON        CLEAR     63  54  72 CALM      30.23R

$$
NMZ532>537-291200-
EASTCENTRAL PLAINS

CITY           SKY/WX    TMP DP  RH WIND       PRES   REMARKS
TUCUMCARI      CLOUDY    65  58  78 W9        30.16F
CANNON AFB     CLOUDY    67  60  77 NW13      30.16S
CLOVIS AIRPORT CLOUDY    66  59  77 NW13      30.17S

$$
NMZ028-029-538-291200-
SOUTHEAST PLAINS

CITY           SKY/WX    TMP DP  RH WIND       PRES   REMARKS
ROSWELL        MOCLDY    66  62  87 E7        30.15R
ARTESIA        PTCLDY    66  66 100 E5        30.15R
CARLSBAD       NOT AVBL


$$


USA.gov is the U.S. government's official web portal to all federal, state and local government web resources and services.